SES-10

Last updated on Wed Nov 20 2024 00:02:42 GMT+0000 (Coordinated Universal Time)

1 42432U 17017A 24323.85248734 -.00000270 00000+0 00000+0 0 9994 2 42432 0.0346 51.9545 0003162 198.3689 48.0725 1.00270485 27973
UTC large
Height (km)
Speed (km/s)
/
Latitude / Longitude
Inclination (degrees)
Orbital Period (minutes)
Azimuth
Elevation
Range (km)
Doppler Factor

Next 0 passes for location: London (51.5072 / 0.1276)

Sorry there are no passes over London.